Flight Track Log - Related Links

Times and Time Zones

All times are in EDT time to prevent confusion due to time zone crossing. See the N6400T flight status page for this flight to view local times or setup timezone preferences in your user account.

Time Position Orientation Groundspeed Altitude Reporting Facility
EDT Latitude Longitude Course Direction KTS MPH feet Rate Location/Type
03:09PM 39.2500 -77.0833 320° Northwest 84 97 2,700  Level Potomac TRACON
03:10PM 39.2500 -77.1167 270° West 81 93 3,000 238 Climbing Potomac TRACON
03:11PM 39.2667 -77.1333 322° Northwest 85 98 3,200 150 Climbing Potomac TRACON
03:12PM 39.3000 -77.1500 339° North 91 105 3,300 158 Climbing Potomac TRACON
03:13PM 39.3167 -77.1667 322° Northwest 86 99 3,500 100 Climbing Potomac TRACON
03:14PM 39.2723 -77.2418 320° Northwest  Level Estimated
03:14PM 39.3333 -77.2000 303° West 88 101 3,500  Level Potomac TRACON
03:15PM 39.3500 -77.2167 322° Northwest 93 107 3,500  Level Potomac TRACON
03:16PM 39.3667 -77.2500 303° West 91 105 3,500  Level Potomac TRACON
03:17PM 39.3833 -77.2667 322° Northwest 88 101 3,500  Level Potomac TRACON
03:18PM 39.4000 -77.2833 322° Northwest 85 98 3,500 -48 Level Potomac TRACON
03:19PM 39.4167 -77.3167 303° West 85 98 3,400  Descending Potomac TRACON
03:20PM 39.4333 -77.3333 322° Northwest 85 98 3,500 50 Climbing Potomac TRACON
03:21PM 39.4500 -77.3500 322° Northwest 85 98 3,500  Level Potomac TRACON
03:22PM 39.4544 -77.3789 281° West 86 99 3,500  Level Washington Center
03:23PM 39.4731 -77.4008 318° Northwest 86 99 3,500  Level Washington Center
03:24PM 39.4894 -77.4228 314° West 86 99 3,500  Level Washington Center
03:25PM 39.5036 -77.4447 310° West 86 99 3,500  Level Washington Center
03:26PM 39.5200 -77.4639 318° Northwest 86 99 3,500  Level Washington Center
03:27PM 39.5364 -77.4858 314° West 86 99 3,500 50 Level Washington Center
03:28PM 39.5506 -77.5078 310° West 86 99 3,600 49 Climbing Washington Center
03:29PM 39.5669 -77.5297 314° West 86 99 3,600 50 Level Washington Center
03:30PM 39.5853 -77.5464 325° Northwest 86 99 3,700  Climbing Washington Center
03:31PM 39.6039 -77.5658 321° Northwest 86 99 3,600 -98 Descending Washington Center

Login

Don't have an account? Register now (free) for customized features, flight alerts, and more!